Weather History for Sarasota, FL

Change the Weather History Date:

Saturday, January 7, 2006

  Actual Average Record
Temperature  
Mean Temperature 49 °F 61 °F  
Max Temperature 57 °F 71 °F 85 °F (1998)
Min Temperature 41 °F 52 °F 30 °F (2010)
Degree Days  
Heating Degree Days 16 6  
Month to date heating degree days 32 40  
Since 1 July heating degree days 190 195  
Cooling Degree Days 0 2  
Month to date cooling degree days 16 14  
Year to date cooling degree days 16 14  
Moisture  
Dew Point 37 °F    
Average Humidity 69    
Maximum Humidity 89    
Minimum Humidity 51    
Precipitation  
Precipitation 0.00 in 0.13 in 1.32 in (1964)
Month to date precipitation 5.73 0.87  
Year to date precipitation 5.73 0.87  
Sea Level Pressure  
Sea Level Pressure 30.19 in    
Wind  
Wind Speed 7 mph (NNE)    
Max Wind Speed 16 mph    
Max Gust Speed 18 mph    
Visibility 10 miles    
Events      
T = Trace of Precipitation, MM = Missing Value Source: NWS Daily Summary

Daily Weather History Graph

Daily Weather History Graph

Search for Another Location

Airport:

Trip Planner

Search our weather history database for the weather conditions in past years. The results will help you decide how hot, cold, wet, or windy it might be!

Date:

Astronomy

Jan. 07, 2006 Rise Set
Actual Time 7:21 AM EST 5:51 PM EST
Civil Twilight 6:56 AM EST 6:17 PM EST
Nautical Twilight 6:27 AM EST 6:46 PM EST
Astronomical Twilight 5:58 AM EST 7:14 PM EST
Moon 12:41 PM EST (1/7) 1:06 AM EST (1/7)
Length of Visible Light 11h 20m
Length of Day
10h 30m
First Quarter, 60% of the Moon is Illuminated
Jan 7
First Quarter
Jan 14
Full
Jan 22
Last Quarter
Jan 29
New
Feb 5
First Quarter

Hourly Weather History & Observations

Time (EST) Temp. Windchill Dew Point Humidity Pressure Visibility Wind Dir Wind Speed Gust Speed Precip Events Conditions
12:53 AM 50.0 °F - 37.0 °F 61% 30.08 in 10.0 mi North 8.1 mph - N/A   Mostly Cloudy
1:53 AM 46.9 °F - 36.0 °F 66% 30.10 in 10.0 mi ENE 3.5 mph - N/A   Clear
2:53 AM 44.1 °F 41.5 °F 36.0 °F 73% 30.11 in 10.0 mi East 4.6 mph - N/A   Mostly Cloudy
3:53 AM 44.1 °F 39.5 °F 35.1 °F 71% 30.10 in 10.0 mi ENE 8.1 mph - N/A   Partly Cloudy
4:53 AM 42.1 °F 37.7 °F 33.1 °F 70% 30.13 in 10.0 mi NE 6.9 mph - N/A   Clear
5:53 AM 42.1 °F 37.1 °F 33.1 °F 70% 30.13 in 10.0 mi NE 8.1 mph - N/A   Clear
6:53 AM 41.0 °F 36.4 °F 32.0 °F 70% 30.15 in 10.0 mi NE 6.9 mph - N/A   Clear
7:53 AM 43.0 °F 38.2 °F 32.0 °F 65% 30.19 in 10.0 mi NE 8.1 mph - N/A   Mostly Cloudy
8:53 AM 45.0 °F 41.2 °F 33.1 °F 63% 30.22 in 10.0 mi ENE 6.9 mph - N/A   Overcast
9:53 AM 46.9 °F - 35.1 °F 63% 30.24 in 10.0 mi East 6.9 mph - N/A   Overcast
10:53 AM 53.1 °F - 37.0 °F 55% 30.23 in 10.0 mi North 5.8 mph - N/A   Scattered Clouds
11:53 AM 54.0 °F - 37.9 °F 55% 30.21 in 10.0 mi WNW 4.6 mph - N/A   Scattered Clouds
2:53 PM 55.0 °F - 39.0 °F 55% 30.19 in 10.0 mi NW 12.7 mph - N/A   Scattered Clouds
3:53 PM 55.0 °F - 39.0 °F 55% 30.19 in 10.0 mi NNW 11.5 mph - N/A   Clear
4:53 PM 54.0 °F - 39.0 °F 57% 30.20 in 10.0 mi NW 9.2 mph - N/A   Clear
5:53 PM 50.0 °F - 39.9 °F 68% 30.21 in 10.0 mi NW 5.8 mph - N/A   Clear
6:53 PM 48.9 °F - 39.9 °F 71% 30.23 in 10.0 mi NNW 4.6 mph - N/A   Clear
7:53 PM 46.9 °F - 39.9 °F 77% 30.25 in 10.0 mi NNW 4.6 mph - N/A   Clear
8:53 PM 46.9 °F - 41.0 °F 80% 30.26 in 10.0 mi Calm Calm - N/A   Clear
9:53 PM 44.1 °F - 41.0 °F 89% 30.27 in 6.0 mi Calm Calm - N/A   Clear
10:53 PM 43.0 °F - 39.0 °F 86% 30.26 in 8.0 mi Calm Calm - N/A   Clear
11:53 PM 41.0 °F 39.0 °F 37.9 °F 89% 30.25 in 7.0 mi ESE 3.5 mph - N/A   Clear